Location: Dos Palmas
(32.4468°N, 116.8732°W)
Time: 02:29:30
(UTC+00:00)

Cosmos 1674 - Pass Details

Date: 20 June 2021
Orbit: 494 x 515 km, 82.5° (Epoch: 27 July)

Event Time Altitude Azimuth Distance (km) Brightness Sun altitude
Exits shadow 04:53:35 26° 213° (SSW) 1,008 4.0 -20.2°
Maximum altitude 04:55:23 51° 278° (W) 631 3.3 -20.4°
Drops below altitude 10° 04:59:00 10° 355° (N) 1,696 6.0 -20.9°
Sets 05:01:10 0° 1° (N) 2,581 7.0 -21.2°
